Кара-Кульджа

Киргизия     40°37′56″N   73°35′25″E
темп.,
°C
ветер,
м/с
пор.,
м/с
влажн.,
%
обл.,
%
осадки,
мм/ч
давл.,
гПа
погр.,
м
25 февраля, чт
чт2500:00−2з3595100 2.6 1019495
03:00−5сз3696100 2.5 1021409
06:00−7сз4696100 6.4 1023431
09:00−7ссз2294100 2.1 1027228
12:00−8сз3393100 3.8 1027389
15:00−7зсз2389100 0.6 1027482
18:00−7св1184100 0.7 1031340
21:00−9в2378100 0.0 103648
26 февраля, пт
пт2600:00−10всв1277100 0.0 103727
03:00−11в1176100 0.0 103722
06:00−12вюв2368100 0.0 103633
09:00−11в1170100 0.0 103634
12:00−8сз2167100 0.0 1031237
15:00−7зсз2176100 0.0 1027306
18:00−8ссз1189100 0.0 102940
21:00−10в127761 0.0 103221
27 февраля, сб
сб2700:00−10в226330 0.0 103221
03:00−11вюв23583 0.0 103121
06:00−11вюв235631 0.0 103121
09:00−9вюв2263100 0.0 103225
12:00−5сз2156100 0.0 1029284
15:00−4зсз2263100 0.0 1028408
18:00−5всв1175100 0.1 103294
21:00−7в237096 0.0 103724
28 февраля, вс
вс2800:00−7в346453 0.0 103837
03:00−8вюв44640 0.0 103850
06:00−8вюв44610 0.0 103653
09:00−6вюв34600 0.0 103570
12:000ссз12630 0.0 1029171
15:000зсз11770 0.0 1025191
18:00−1сз11800 0.0 102622
21:00−3в22630 0.0 103022
1 марта, пн
пн100:00−3вюв34480 0.0 103037
03:00−3вюв44480 0.0 103051
06:00−3вюв34472 0.0 102943
09:00−2вюв34480 0.0 102950
12:00+5вюв125429 0.0 1025157
15:00+6ссз225932 0.0 1023182
18:00+3с016916 0.0 102422
21:00+1вюв23530 0.0 102724